DAL1578 KMIA-KJFK

Flight info

Callsign DAL1578
Flight time 2h 19m
Altitude 35000
Route FOLZZ3 ALYRA PELCN Y309 FLRDA SAGGY CHIEZ Q161 KALDA Q108 SIE CAMRN5
Aircraft B739/M-SDE2E3FGHIRWXY/LB1

Departure

Time 2026-05-09 15:35
Airport Miami International Airport (KMIA)

Arrival

Time 2026-05-09 17:55
Airport John F. Kennedy International Airport (KJFK)
Time Latitude Longitude Altitude Speed Heading
2026-05-09 15:07 25.79177 -80.27711 14 ft 0 kts 104°
2026-05-09 15:22 25.79181 -80.27728 15 ft 4 kts 104°
2026-05-09 15:22 25.79187 -80.27751 18 ft 4 kts 129°
2026-05-09 15:22 25.79208 -80.27764 16 ft 4 kts 179°
2026-05-09 15:23 25.79221 -80.27764 16 ft 0 kts 188°
2026-05-09 15:25 25.79219 -80.27764 14 ft 1 kts 188°
2026-05-09 15:25 25.79189 -80.27769 14 ft 7 kts 187°
2026-05-09 15:26 25.79054 -80.27797 14 ft 9 kts 200°
2026-05-09 15:26 25.79011 -80.27817 14 ft 0 kts 204°
2026-05-09 15:27 25.78999 -80.27822 14 ft 4 kts 204°
2026-05-09 15:27 25.78955 -80.27846 14 ft 10 kts 216°
2026-05-09 15:27 25.78941 -80.27927 15 ft 12 kts 284°
2026-05-09 15:27 25.78979 -80.28012 15 ft 13 kts 300°
2026-05-09 15:28 25.79028 -80.28107 14 ft 16 kts 299°
2026-05-09 15:28 25.79088 -80.28224 15 ft 19 kts 299°
2026-05-09 15:28 25.79157 -80.28351 15 ft 19 kts 300°
2026-05-09 15:28 25.79243 -80.28458 14 ft 18 kts 300°
2026-05-09 15:29 25.79304 -80.28580 14 ft 18 kts 299°
2026-05-09 15:29 25.79365 -80.28697 14 ft 17 kts 300°
2026-05-09 15:29 25.79423 -80.28810 14 ft 17 kts 299°
2026-05-09 15:29 25.79478 -80.28919 14 ft 16 kts 299°
2026-05-09 15:30 25.79534 -80.29027 14 ft 17 kts 299°
2026-05-09 15:30 25.79594 -80.29145 14 ft 18 kts 300°
2026-05-09 15:30 25.79661 -80.29275 14 ft 20 kts 300°
2026-05-09 15:30 25.79732 -80.29416 14 ft 21 kts 300°
2026-05-09 15:31 25.79804 -80.29557 15 ft 21 kts 299°
2026-05-09 15:31 25.79873 -80.29694 13 ft 20 kts 298°
2026-05-09 15:31 25.79924 -80.29810 13 ft 14 kts 295°
2026-05-09 15:31 25.79960 -80.29904 13 ft 11 kts 288°
2026-05-09 15:32 25.79972 -80.29949 12 ft 3 kts 286°
2026-05-09 15:32 25.79980 -80.29977 12 ft 5 kts 286°
2026-05-09 15:32 25.79995 -80.30035 12 ft 11 kts 286°
2026-05-09 15:32 25.80025 -80.30122 13 ft 11 kts 316°
2026-05-09 15:33 25.80074 -80.30094 13 ft 9 kts 84°
2026-05-09 15:33 25.80074 -80.30084 13 ft 0 kts 86°
2026-05-09 15:34 25.80075 -80.30064 12 ft 7 kts 88°
2026-05-09 15:34 25.80080 -80.29888 12 ft 55 kts 89°
2026-05-09 15:34 25.80111 -80.29179 16 ft 126 kts 87°
2026-05-09 15:35 25.80156 -80.28012 56 ft 176 kts 88°
2026-05-09 15:35 25.80246 -80.26637 710 ft 181 kts 89°
2026-05-09 15:35 25.80114 -80.25287 1412 ft 180 kts 116°
2026-05-09 15:35 25.79507 -80.23961 1689 ft 206 kts 118°
2026-05-09 15:36 25.78822 -80.22462 1946 ft 228 kts 117°
2026-05-09 15:36 25.78075 -80.20812 2177 ft 250 kts 117°
2026-05-09 15:36 25.77275 -80.19048 2727 ft 261 kts 117°
2026-05-09 15:36 25.76446 -80.17256 3560 ft 260 kts 120°
2026-05-09 15:37 25.75569 -80.15479 4302 ft 265 kts 120°
2026-05-09 15:37 25.74678 -80.13684 5096 ft 267 kts 118°
2026-05-09 15:37 25.74191 -80.11684 5824 ft 275 kts 90°
2026-05-09 15:37 25.74676 -80.09631 6550 ft 281 kts 62°
2026-05-09 15:38 25.75828 -80.07870 7245 ft 285 kts 51°
2026-05-09 15:38 25.77144 -80.06193 7874 ft 292 kts 49°
2026-05-09 15:38 25.78510 -80.04507 8566 ft 295 kts 48°
2026-05-09 15:38 25.79891 -80.02804 9244 ft 299 kts 48°
2026-05-09 15:39 25.81291 -80.01067 9910 ft 304 kts 49°
2026-05-09 15:39 25.82715 -79.99286 10351 ft 317 kts 49°
2026-05-09 15:39 25.84226 -79.97384 10490 ft 339 kts 49°
2026-05-09 15:39 25.85824 -79.95363 10645 ft 358 kts 49°
2026-05-09 15:40 25.87493 -79.93248 10992 ft 369 kts 49°
2026-05-09 15:40 25.89193 -79.91088 11515 ft 373 kts 49°
2026-05-09 15:40 25.90906 -79.88910 12079 ft 377 kts 49°
2026-05-09 15:40 25.92642 -79.86701 12560 ft 382 kts 49°
2026-05-09 15:41 25.94400 -79.84461 13081 ft 387 kts 49°
2026-05-09 15:41 25.96178 -79.82195 13611 ft 391 kts 49°
2026-05-09 15:41 25.97974 -79.79905 14094 ft 395 kts 49°
2026-05-09 15:41 25.99785 -79.77594 14570 ft 398 kts 49°
2026-05-09 15:42 26.01585 -79.75296 15097 ft 400 kts 49°
2026-05-09 15:42 26.03419 -79.72954 15581 ft 403 kts 49°
2026-05-09 15:42 26.05265 -79.70595 16067 ft 406 kts 48°
2026-05-09 15:42 26.07125 -79.68218 16549 ft 409 kts 48°
2026-05-09 15:43 26.08997 -79.65823 17036 ft 412 kts 48°
2026-05-09 15:43 26.10881 -79.63402 17514 ft 415 kts 49°
2026-05-09 15:43 26.12644 -79.60847 17987 ft 418 kts 53°
2026-05-09 15:43 26.14314 -79.58181 18432 ft 421 kts 55°
2026-05-09 15:44 26.15970 -79.55470 18838 ft 424 kts 55°
2026-05-09 15:44 26.17638 -79.52755 19244 ft 427 kts 54°
2026-05-09 15:44 26.19337 -79.50028 19640 ft 430 kts 54°
2026-05-09 15:44 26.21062 -79.47288 19996 ft 434 kts 53°
2026-05-09 15:45 26.22809 -79.44528 20390 ft 437 kts 53°
2026-05-09 15:45 26.24566 -79.41757 20793 ft 439 kts 53°
2026-05-09 15:45 26.26308 -79.39007 21202 ft 441 kts 53°
2026-05-09 15:45 26.28112 -79.36176 21591 ft 443 kts 51°
2026-05-09 15:46 26.30235 -79.33779 21904 ft 441 kts 31°
2026-05-09 15:46 26.32830 -79.31973 22318 ft 440 kts 28°
2026-05-09 15:46 26.35479 -79.30157 22698 ft 443 kts 28°
2026-05-09 15:46 26.38063 -79.28361 23043 ft 446 kts 28°
2026-05-09 15:47 26.40698 -79.26511 23407 ft 448 kts 28°
2026-05-09 15:47 26.43336 -79.24643 23741 ft 451 kts 29°
2026-05-09 15:47 26.45987 -79.22755 24038 ft 453 kts 29°
2026-05-09 15:47 26.48652 -79.20853 24304 ft 456 kts 28°
2026-05-09 15:48 26.51337 -79.18934 24547 ft 460 kts 28°
2026-05-09 15:48 26.54036 -79.17005 24841 ft 461 kts 28°
2026-05-09 15:48 26.56739 -79.15071 25152 ft 463 kts 28°
2026-05-09 15:48 26.59458 -79.13125 25453 ft 464 kts 28°
2026-05-09 15:49 26.62198 -79.11163 25731 ft 467 kts 28°
2026-05-09 15:49 26.64944 -79.09197 26004 ft 469 kts 28°
2026-05-09 15:49 26.67692 -79.07228 26277 ft 471 kts 28°
2026-05-09 15:49 26.70454 -79.05248 26545 ft 472 kts 28°
2026-05-09 15:50 26.73187 -79.03288 26843 ft 473 kts 28°
2026-05-09 15:50 26.75970 -79.01290 27130 ft 475 kts 28°
2026-05-09 15:50 26.78760 -78.99287 27334 ft 479 kts 28°
2026-05-09 15:50 26.81572 -78.97267 27567 ft 481 kts 28°
2026-05-09 15:51 26.84398 -78.95235 27831 ft 483 kts 27°
2026-05-09 15:51 26.87227 -78.93200 28082 ft 484 kts 27°
2026-05-09 15:51 26.90064 -78.91157 28331 ft 486 kts 27°
2026-05-09 15:51 26.92916 -78.89103 28560 ft 488 kts 27°
2026-05-09 15:52 26.98647 -78.84970 29012 ft 491 kts 27°
2026-05-09 15:52 27.01530 -78.82890 29239 ft 493 kts 27°
2026-05-09 15:52 27.04422 -78.80801 29462 ft 495 kts 27°
2026-05-09 15:53 27.07330 -78.78701 29586 ft 499 kts 27°
2026-05-09 15:53 27.10255 -78.76586 29823 ft 500 kts 27°
2026-05-09 15:53 27.13171 -78.74474 30155 ft 498 kts 27°
2026-05-09 15:53 27.16077 -78.72368 30479 ft 496 kts 27°
2026-05-09 15:54 27.18981 -78.70263 30787 ft 495 kts 27°
2026-05-09 15:54 27.21839 -78.68192 31055 ft 495 kts 27°
2026-05-09 15:54 27.24728 -78.66097 31353 ft 493 kts 27°
2026-05-09 15:54 27.27637 -78.64082 31686 ft 486 kts 20°
2026-05-09 15:55 27.30776 -78.62884 31915 ft 470 kts
2026-05-09 15:55 27.33991 -78.62443 32223 ft 464 kts 359°
2026-05-09 15:55 27.37201 -78.62072 32511 ft 464 kts 359°
2026-05-09 15:55 27.40310 -78.61718 32789 ft 463 kts 359°
2026-05-09 15:56 27.43517 -78.61343 33107 ft 462 kts 359°
2026-05-09 15:56 27.46709 -78.60955 33441 ft 461 kts 359°
2026-05-09 15:56 27.49895 -78.60556 33744 ft 460 kts 359°
2026-05-09 15:56 27.53077 -78.60149 34018 ft 460 kts 359°
2026-05-09 15:57 27.56257 -78.59737 34266 ft 459 kts 359°
2026-05-09 15:57 27.59437 -78.59324 34526 ft 459 kts 359°
2026-05-09 15:57 27.62600 -78.58911 34802 ft 457 kts 359°
2026-05-09 15:57 27.65758 -78.58498 35053 ft 456 kts 359°
2026-05-09 15:58 27.67535 -78.58267 35047 ft 458 kts 359°
2026-05-09 15:58 27.73875 -78.57443 35047 ft 458 kts 359°
2026-05-09 15:59 27.80175 -78.56619 35051 ft 454 kts 358°
2026-05-09 15:59 27.86440 -78.55801 35053 ft 452 kts 358°
2026-05-09 16:00 27.92684 -78.54986 35062 ft 451 kts 358°
2026-05-09 16:00 27.96129 -78.54536 35063 ft 451 kts 358°
2026-05-09 16:01 28.02365 -78.53721 35059 ft 451 kts 358°
2026-05-09 16:01 28.08608 -78.52904 35054 ft 452 kts 358°
2026-05-09 16:02 28.14826 -78.52089 35054 ft 453 kts 358°
2026-05-09 16:02 28.24254 -78.50852 35059 ft 456 kts 358°
2026-05-09 16:03 28.30570 -78.50020 35053 ft 457 kts 358°
2026-05-09 16:03 28.36898 -78.49186 35049 ft 458 kts 358°
2026-05-09 16:04 28.43231 -78.48350 35047 ft 458 kts 358°
2026-05-09 16:04 28.49567 -78.47513 35061 ft 459 kts 358°
2026-05-09 16:05 28.55906 -78.46675 35056 ft 458 kts 358°
2026-05-09 16:05 28.62242 -78.45836 35047 ft 458 kts 358°
2026-05-09 16:06 28.68566 -78.44997 35048 ft 457 kts 358°
2026-05-09 16:06 28.74877 -78.44159 35048 ft 456 kts 358°
2026-05-09 16:07 28.81177 -78.43322 35053 ft 456 kts 357°
2026-05-09 16:07 28.87471 -78.42486 35043 ft 455 kts 357°
2026-05-09 16:08 28.93758 -78.41648 35040 ft 455 kts 357°
2026-05-09 16:08 29.00038 -78.40811 35045 ft 454 kts 357°
2026-05-09 16:09 29.06316 -78.39973 35068 ft 455 kts 356°
2026-05-09 16:09 29.12603 -78.39133 35054 ft 454 kts 356°
2026-05-09 16:10 29.18830 -78.38299 35041 ft 454 kts 356°
2026-05-09 16:10 29.25104 -78.37458 35043 ft 454 kts 356°
2026-05-09 16:11 29.31369 -78.36618 35043 ft 453 kts 356°
2026-05-09 16:11 29.37639 -78.35775 35051 ft 453 kts 356°
2026-05-09 16:12 29.43894 -78.34934 35040 ft 452 kts 356°
2026-05-09 16:12 29.50125 -78.34223 35029 ft 442 kts 349°
2026-05-09 16:13 29.56180 -78.34624 35043 ft 433 kts 345°
2026-05-09 16:13 29.62184 -78.35222 35055 ft 434 kts 345°
2026-05-09 16:14 29.68205 -78.35738 35048 ft 434 kts 345°
2026-05-09 16:14 29.74237 -78.36195 35040 ft 435 kts 346°
2026-05-09 16:15 29.80273 -78.36638 35041 ft 435 kts 346°
2026-05-09 16:15 29.86312 -78.37082 35041 ft 435 kts 346°
2026-05-09 16:16 29.92354 -78.37530 35043 ft 436 kts 345°
2026-05-09 16:16 29.98374 -78.37976 35044 ft 436 kts 345°
2026-05-09 16:17 30.04437 -78.38426 35044 ft 437 kts 345°
2026-05-09 16:17 30.10504 -78.38877 35043 ft 437 kts 345°
2026-05-09 16:18 30.16665 -78.38756 35049 ft 453 kts 356°
2026-05-09 16:18 30.22935 -78.37737 35050 ft 455 kts 357°
2026-05-09 16:19 30.29202 -78.36728 35045 ft 455 kts 356°
2026-05-09 16:19 30.35474 -78.35773 35047 ft 454 kts 356°
2026-05-09 16:20 30.41744 -78.34822 35045 ft 455 kts 357°
2026-05-09 16:20 30.48028 -78.33509 35051 ft 461 kts
2026-05-09 16:21 30.54319 -78.31982 35050 ft 462 kts
2026-05-09 16:21 30.60610 -78.30478 35048 ft 461 kts
2026-05-09 16:22 30.66905 -78.29010 35043 ft 461 kts
2026-05-09 16:22 30.72684 -78.27671 35083 ft 461 kts
2026-05-09 16:23 30.78948 -78.26217 35056 ft 462 kts
2026-05-09 16:23 30.85255 -78.24747 35048 ft 462 kts
2026-05-09 16:24 30.91560 -78.23277 35043 ft 462 kts
2026-05-09 16:24 30.97867 -78.21831 35044 ft 461 kts
2026-05-09 16:25 31.04173 -78.20437 35048 ft 462 kts 360°
2026-05-09 16:25 31.10495 -78.19037 35048 ft 463 kts 360°
2026-05-09 16:26 31.16829 -78.17626 35046 ft 464 kts
2026-05-09 16:26 31.23173 -78.16206 35043 ft 465 kts
2026-05-09 16:27 31.29539 -78.14780 35051 ft 467 kts 359°
2026-05-09 16:27 31.35927 -78.13346 35048 ft 468 kts 360°
2026-05-09 16:28 31.42337 -78.11906 35047 ft 470 kts 360°
2026-05-09 16:28 31.48763 -78.10654 35043 ft 467 kts 357°
2026-05-09 16:29 31.55200 -78.09578 35049 ft 469 kts 357°
2026-05-09 16:29 31.61663 -78.08512 35043 ft 469 kts 355°
2026-05-09 16:30 31.68133 -78.07459 35046 ft 470 kts 356°
2026-05-09 16:30 31.74617 -78.06361 35041 ft 471 kts 356°
2026-05-09 16:31 31.81103 -78.05244 35049 ft 471 kts 356°
2026-05-09 16:31 31.87591 -78.04122 35046 ft 471 kts 356°
2026-05-09 16:32 31.92980 -78.03191 35039 ft 470 kts 356°
2026-05-09 16:32 32.00499 -78.01891 35040 ft 469 kts 356°
2026-05-09 16:33 32.06957 -78.00774 35074 ft 468 kts 356°
2026-05-09 16:33 32.13408 -77.99658 35049 ft 468 kts 356°
2026-05-09 16:34 32.19849 -77.98541 35033 ft 467 kts 356°
2026-05-09 16:34 32.26233 -77.97431 35035 ft 466 kts 356°
2026-05-09 16:35 32.32646 -77.96316 35064 ft 465 kts 356°
2026-05-09 16:35 32.39046 -77.95202 35040 ft 465 kts 356°
2026-05-09 16:36 32.51805 -77.92973 35030 ft 462 kts 356°
2026-05-09 16:37 32.58126 -77.91868 35062 ft 461 kts 356°
2026-05-09 16:37 32.64479 -77.90756 35040 ft 461 kts 356°
2026-05-09 16:38 32.70817 -77.89644 35023 ft 460 kts 356°
2026-05-09 16:38 32.77150 -77.88532 35025 ft 460 kts 356°
2026-05-09 16:39 32.83479 -77.87418 35025 ft 460 kts 356°
2026-05-09 16:39 32.89774 -77.86310 35026 ft 460 kts 356°
2026-05-09 16:40 32.96106 -77.85193 35026 ft 460 kts 356°
2026-05-09 16:42 33.21501 -77.80695 35022 ft 461 kts 356°
2026-05-09 16:42 33.27838 -77.79567 35024 ft 460 kts 356°
2026-05-09 16:43 33.34155 -77.78442 35026 ft 458 kts 356°
2026-05-09 16:43 33.40459 -77.77319 35031 ft 458 kts 356°
2026-05-09 16:44 33.46753 -77.76196 35026 ft 457 kts 356°
2026-05-09 16:44 33.53039 -77.75072 35018 ft 457 kts 356°
2026-05-09 16:45 33.59278 -77.73955 35020 ft 456 kts 356°
2026-05-09 16:45 33.65561 -77.72829 35023 ft 457 kts 356°
2026-05-09 16:46 33.71846 -77.71641 35019 ft 459 kts 358°
2026-05-09 16:46 33.78133 -77.70257 35014 ft 459 kts 358°
2026-05-09 16:47 33.84408 -77.68849 35010 ft 458 kts 358°
2026-05-09 16:47 33.90665 -77.67468 35015 ft 458 kts 358°
2026-05-09 16:48 33.96930 -77.66095 35019 ft 457 kts 358°
2026-05-09 16:48 34.02131 -77.64956 35008 ft 456 kts 358°
2026-05-09 16:49 34.08379 -77.63586 35008 ft 455 kts 358°
2026-05-09 16:50 34.17730 -77.61531 35018 ft 455 kts 358°
2026-05-09 16:50 34.23963 -77.60159 35005 ft 455 kts 358°
2026-05-09 16:51 34.30165 -77.58791 35001 ft 456 kts 358°
2026-05-09 16:51 34.36413 -77.57410 35044 ft 456 kts 358°
2026-05-09 16:52 34.42659 -77.56028 35015 ft 457 kts 358°
2026-05-09 16:52 34.48929 -77.54639 35003 ft 458 kts 358°
2026-05-09 16:52 34.52067 -77.53749 34994 ft 470 kts
2026-05-09 16:53 34.55142 -77.52239 35004 ft 483 kts 14°
2026-05-09 16:53 34.61187 -77.48576 35026 ft 486 kts 15°
2026-05-09 16:54 34.67182 -77.44698 34995 ft 484 kts 13°
2026-05-09 16:54 34.73269 -77.41240 35001 ft 484 kts 14°
2026-05-09 16:55 34.79286 -77.37630 35000 ft 486 kts 15°
2026-05-09 16:55 34.85335 -77.33954 35043 ft 486 kts 14°
2026-05-09 16:56 34.91409 -77.30281 35018 ft 487 kts 14°
2026-05-09 16:56 34.97497 -77.26609 35007 ft 488 kts 14°
2026-05-09 16:57 35.03596 -77.22930 35014 ft 490 kts 14°
2026-05-09 16:57 35.09702 -77.19238 35014 ft 491 kts 14°
2026-05-09 16:58 35.15837 -77.15521 35017 ft 492 kts 14°
2026-05-09 16:58 35.21938 -77.11818 35010 ft 493 kts 14°
2026-05-09 16:59 35.28081 -77.08084 35001 ft 494 kts 14°
2026-05-09 16:59 35.34236 -77.04335 34995 ft 494 kts 14°
2026-05-09 17:00 35.40385 -77.00584 34987 ft 494 kts 14°
2026-05-09 17:00 35.46466 -76.96868 34986 ft 494 kts 14°
2026-05-09 17:01 35.52611 -76.93106 34983 ft 494 kts 14°
2026-05-09 17:01 35.58655 -76.89321 34969 ft 497 kts 13°
2026-05-09 17:02 35.64829 -76.85617 34989 ft 494 kts 13°
2026-05-09 17:02 35.70960 -76.81903 34995 ft 494 kts 13°
2026-05-09 17:03 35.77129 -76.78152 35037 ft 494 kts 13°
2026-05-09 17:05 36.01316 -76.62768 35049 ft 501 kts 14°
2026-05-09 17:05 36.07402 -76.58477 34966 ft 501 kts 14°
2026-05-09 17:06 36.13505 -76.54385 34973 ft 498 kts 13°
2026-05-09 17:06 36.19356 -76.50463 34972 ft 497 kts 13°
2026-05-09 17:07 36.25393 -76.46377 34983 ft 495 kts 13°
2026-05-09 17:07 36.31424 -76.42273 34968 ft 494 kts 13°
2026-05-09 17:08 36.37141 -76.38375 34958 ft 492 kts 13°
2026-05-09 17:08 36.45990 -76.32331 35029 ft 491 kts 14°
2026-05-09 17:09 36.51987 -76.28231 34975 ft 492 kts 14°
2026-05-09 17:09 36.57975 -76.24125 34969 ft 492 kts 14°
2026-05-09 17:10 36.63979 -76.20003 34927 ft 494 kts 14°
2026-05-09 17:10 36.69546 -76.16171 34965 ft 494 kts 14°
2026-05-09 17:11 36.75563 -76.12023 34939 ft 494 kts 14°
2026-05-09 17:11 36.81578 -76.07867 34926 ft 494 kts 14°
2026-05-09 17:12 36.85310 -76.05286 34933 ft 495 kts 14°
2026-05-09 17:12 36.90491 -76.01698 34974 ft 495 kts 14°
2026-05-09 17:13 36.96532 -75.97508 34943 ft 496 kts 14°
2026-05-09 17:13 37.02554 -75.93320 34969 ft 495 kts 14°
2026-05-09 17:14 37.08377 -75.89337 34969 ft 486 kts
2026-05-09 17:14 37.11454 -75.87834 35011 ft 463 kts 360°
2026-05-09 17:14 37.14544 -75.86762 34983 ft 460 kts 359°
2026-05-09 17:15 37.20230 -75.84892 34988 ft 459 kts 358°
2026-05-09 17:15 37.26339 -75.82847 34979 ft 460 kts 359°
2026-05-09 17:17 37.51094 -75.74233 34952 ft 462 kts
2026-05-09 17:18 37.56208 -75.72442 34951 ft 462 kts
2026-05-09 17:18 37.62359 -75.70286 34955 ft 461 kts
2026-05-09 17:19 37.68549 -75.68113 34953 ft 461 kts
2026-05-09 17:19 37.74722 -75.65942 34958 ft 461 kts
2026-05-09 17:20 37.80916 -75.63761 34973 ft 462 kts
2026-05-09 17:20 37.84002 -75.62430 34972 ft 477 kts 10°
2026-05-09 17:20 37.86451 -75.60866 34968 ft 493 kts 19°
2026-05-09 17:21 37.92091 -75.55961 34970 ft 501 kts 23°
2026-05-09 17:21 37.97760 -75.50860 34978 ft 498 kts 22°
2026-05-09 17:22 38.03460 -75.45893 34985 ft 497 kts 22°
2026-05-09 17:22 38.09184 -75.41052 34971 ft 491 kts 20°
2026-05-09 17:23 38.14928 -75.36420 34962 ft 488 kts 20°
2026-05-09 17:23 38.20602 -75.31798 35009 ft 486 kts 21°
2026-05-09 17:25 38.34726 -75.26062 34977 ft 442 kts 355°
2026-05-09 17:25 38.37786 -75.25472 34983 ft 447 kts 355°
2026-05-09 17:25 38.43960 -75.24206 35004 ft 451 kts 356°
2026-05-09 17:26 38.50117 -75.22915 34974 ft 451 kts 357°
2026-05-09 17:26 38.56307 -75.21592 34962 ft 451 kts 357°
2026-05-09 17:27 38.62491 -75.20269 34970 ft 450 kts 356°
2026-05-09 17:27 38.68663 -75.18682 34933 ft 464 kts
2026-05-09 17:28 38.71660 -75.17065 34858 ft 474 kts 18°
2026-05-09 17:28 38.74474 -75.14768 34872 ft 487 kts 27°
2026-05-09 17:28 38.79866 -75.09352 34914 ft 497 kts 28°
2026-05-09 17:29 38.85337 -75.03904 34829 ft 497 kts 28°
2026-05-09 17:29 38.88084 -75.01196 34255 ft 498 kts 28°
2026-05-09 17:29 38.90835 -74.98494 33543 ft 498 kts 28°
2026-05-09 17:30 38.93590 -74.95790 32785 ft 498 kts 29°
2026-05-09 17:30 38.96344 -74.93084 32042 ft 498 kts 30°
2026-05-09 17:30 38.99088 -74.90384 31479 ft 494 kts 30°
2026-05-09 17:30 39.01800 -74.87706 30933 ft 490 kts 31°
2026-05-09 17:31 39.04494 -74.85047 30427 ft 486 kts 32°
2026-05-09 17:31 39.07164 -74.82409 29868 ft 482 kts 32°
2026-05-09 17:32 39.17391 -74.71685 27715 ft 466 kts 36°
2026-05-09 17:32 39.19815 -74.69018 27193 ft 462 kts 36°
2026-05-09 17:32 39.22259 -74.66342 26677 ft 458 kts 36°
2026-05-09 17:33 39.24684 -74.63700 26198 ft 455 kts 36°
2026-05-09 17:33 39.27097 -74.61080 25680 ft 452 kts 36°
2026-05-09 17:33 39.29500 -74.58474 25177 ft 450 kts 36°
2026-05-09 17:33 39.31892 -74.55877 24686 ft 448 kts 36°
2026-05-09 17:34 39.34270 -74.53293 24174 ft 445 kts 36°
2026-05-09 17:35 39.47470 -74.38902 21282 ft 429 kts 36°
2026-05-09 17:35 39.49738 -74.36422 20810 ft 425 kts 36°
2026-05-09 17:36 39.51986 -74.33962 20317 ft 422 kts 37°
2026-05-09 17:36 39.54218 -74.31519 19856 ft 418 kts 37°
2026-05-09 17:36 39.56429 -74.29095 19393 ft 415 kts 37°
2026-05-09 17:36 39.58625 -74.26687 18935 ft 412 kts 37°
2026-05-09 17:37 39.60801 -74.24297 18527 ft 408 kts 37°
2026-05-09 17:37 39.62953 -74.21932 18093 ft 404 kts 37°
2026-05-09 17:37 39.65082 -74.19591 17633 ft 399 kts 37°
2026-05-09 17:37 39.67190 -74.17271 17201 ft 395 kts 37°
2026-05-09 17:38 39.69274 -74.14975 16790 ft 391 kts 37°
2026-05-09 17:38 39.71338 -74.12699 16395 ft 388 kts 37°
2026-05-09 17:38 39.73386 -74.10439 15994 ft 385 kts 37°
2026-05-09 17:39 39.77419 -74.05983 15263 ft 381 kts 37°
2026-05-09 17:39 39.79444 -74.03745 14883 ft 382 kts 37°
2026-05-09 17:39 39.81475 -74.01498 14523 ft 384 kts 37°
2026-05-09 17:39 39.83517 -73.99238 14118 ft 386 kts 37°
2026-05-09 17:40 39.85687 -73.97203 13712 ft 383 kts 26°
2026-05-09 17:40 39.88018 -73.95540 13286 ft 382 kts 22°
2026-05-09 17:40 39.90385 -73.93977 12877 ft 380 kts 22°
2026-05-09 17:40 39.92732 -73.92418 12480 ft 378 kts 24°
2026-05-09 17:41 39.95056 -73.90829 12270 ft 381 kts 24°
2026-05-09 17:41 39.97476 -73.89145 12091 ft 407 kts 25°
2026-05-09 17:41 40.00015 -73.87398 11923 ft 417 kts 25°
2026-05-09 17:41 40.02600 -73.85648 11714 ft 418 kts 25°
2026-05-09 17:42 40.05179 -73.83920 11504 ft 414 kts 25°
2026-05-09 17:42 40.07740 -73.82217 11294 ft 412 kts 25°
2026-05-09 17:42 40.10294 -73.80529 11016 ft 412 kts 25°
2026-05-09 17:42 40.12857 -73.78846 10717 ft 412 kts 25°
2026-05-09 17:43 40.15422 -73.77176 10363 ft 411 kts 25°
2026-05-09 17:43 40.17969 -73.75531 10013 ft 406 kts 25°
2026-05-09 17:43 40.20487 -73.73919 9670 ft 401 kts 25°
2026-05-09 17:43 40.22980 -73.72332 9310 ft 397 kts 24°
2026-05-09 17:44 40.25459 -73.70760 8953 ft 395 kts 24°
2026-05-09 17:44 40.27928 -73.69196 8566 ft 393 kts 24°
2026-05-09 17:44 40.30384 -73.67640 8216 ft 391 kts 24°
2026-05-09 17:44 40.32852 -73.66196 7842 ft 387 kts 17°
2026-05-09 17:45 40.35421 -73.65167 7490 ft 384 kts 13°
2026-05-09 17:45 40.37990 -73.64239 7144 ft 383 kts 13°
2026-05-09 17:45 40.40557 -73.63327 6850 ft 381 kts 13°
2026-05-09 17:45 40.43114 -73.62433 6552 ft 380 kts 12°
2026-05-09 17:46 40.45665 -73.61549 6247 ft 378 kts 12°
2026-05-09 17:46 40.48199 -73.60675 5939 ft 376 kts 12°
2026-05-09 17:46 40.50728 -73.59802 5629 ft 375 kts 12°
2026-05-09 17:46 40.53246 -73.58931 5339 ft 373 kts 12°
2026-05-09 17:47 40.55701 -73.58079 5082 ft 365 kts 12°
2026-05-09 17:47 40.58119 -73.57232 4837 ft 354 kts 12°
2026-05-09 17:47 40.60473 -73.56402 4604 ft 345 kts 12°
2026-05-09 17:47 40.62763 -73.55593 4392 ft 336 kts 12°
2026-05-09 17:48 40.65000 -73.54798 4189 ft 329 kts 12°
2026-05-09 17:48 40.67173 -73.54026 3953 ft 317 kts 12°
2026-05-09 17:48 40.69264 -73.53469 3709 ft 297 kts 356°
2026-05-09 17:48 40.71241 -73.53767 3523 ft 278 kts 344°
2026-05-09 17:49 40.73100 -73.54277 3320 ft 273 kts 342°
2026-05-09 17:49 40.74910 -73.54799 3167 ft 262 kts 341°
2026-05-09 17:49 40.76495 -73.55734 2950 ft 240 kts 314°
2026-05-09 17:49 40.77507 -73.57335 2819 ft 219 kts 298°
2026-05-09 17:50 40.78320 -73.58978 2616 ft 208 kts 292°
2026-05-09 17:50 40.78144 -73.62226 2301 ft 174 kts 239°
2026-05-09 17:50 40.77521 -73.63542 2148 ft 164 kts 237°
2026-05-09 17:51 40.76920 -73.64814 2060 ft 164 kts 237°
2026-05-09 17:51 40.76269 -73.66083 2022 ft 175 kts 226°
2026-05-09 17:51 40.75254 -73.66980 2016 ft 177 kts 211°
2026-05-09 17:51 40.74216 -73.67842 2005 ft 174 kts 213°
2026-05-09 17:52 40.73210 -73.68667 1970 ft 166 kts 212°
2026-05-09 17:52 40.72225 -73.69445 1789 ft 163 kts 212°
2026-05-09 17:52 40.71300 -73.70170 1582 ft 151 kts 212°
2026-05-09 17:52 40.70370 -73.70900 1414 ft 157 kts 212°
2026-05-09 17:53 40.69463 -73.71610 1165 ft 149 kts 212°
2026-05-09 17:53 40.68602 -73.72287 972 ft 144 kts 211°
2026-05-09 17:53 40.67745 -73.72959 779 ft 142 kts 210°
2026-05-09 17:53 40.66886 -73.73633 569 ft 146 kts 210°
2026-05-09 17:54 40.66039 -73.74302 418 ft 138 kts 211°
2026-05-09 17:54 40.65237 -73.74935 246 ft 131 kts 209°
2026-05-09 17:54 40.64462 -73.75531 56 ft 128 kts 210°
2026-05-09 17:54 40.63780 -73.76068 19 ft 88 kts 211°
2026-05-09 17:55 40.63430 -73.76341 23 ft 35 kts 213°
2026-05-09 17:55 40.63276 -73.76544 23 ft 24 kts 238°
2026-05-09 17:55 40.63237 -73.76707 18 ft 16 kts 284°
2026-05-09 17:55 40.63288 -73.76831 20 ft 15 kts 300°
2026-05-09 17:56 40.63340 -73.76947 20 ft 14 kts 302°
2026-05-09 17:56 40.63392 -73.77058 21 ft 14 kts 301°
2026-05-09 17:56 40.63440 -73.77165 25 ft 13 kts 301°
2026-05-09 17:57 40.63517 -73.77334 23 ft 3 kts 301°
2026-05-09 17:57 40.63528 -73.77359 22 ft 3 kts 300°
2026-05-09 17:57 40.63529 -73.77361 22 ft 0 kts 300°
2026-05-09 18:01 40.63530 -73.77363 22 ft 2 kts 300°
2026-05-09 18:02 40.63549 -73.77405 23 ft 9 kts 300°
2026-05-09 18:02 40.63591 -73.77498 22 ft 14 kts 301°
2026-05-09 18:02 40.63642 -73.77602 21 ft 13 kts 304°
2026-05-09 18:02 40.63650 -73.77708 20 ft 13 kts 229°
2026-05-09 18:03 40.63579 -73.77773 19 ft 12 kts 219°
2026-05-09 18:03 40.63584 -73.77871 22 ft 12 kts 317°
2026-05-09 18:03 40.63663 -73.77897 22 ft 12 kts 353°
2026-05-09 18:03 40.63743 -73.77910 23 ft 11 kts 352°
2026-05-09 18:04 40.63822 -73.77923 23 ft 11 kts 353°
2026-05-09 18:04 40.63898 -73.77935 22 ft 11 kts 353°
2026-05-09 18:04 40.63975 -73.77947 22 ft 12 kts 353°
2026-05-09 18:04 40.64050 -73.77976 22 ft 11 kts 329°
2026-05-09 18:05 40.64118 -73.78028 22 ft 11 kts 330°
2026-05-09 18:05 40.64181 -73.78082 22 ft 11 kts 308°
2026-05-09 18:05 40.64187 -73.78166 22 ft 6 kts 270°
2026-05-09 18:05 40.64187 -73.78184 22 ft 0 kts 270°